Simultaneous Nadir Overpasses (SNOs) Predictions

Prediction of SNOs between FY3D and LANDSAT-8 Satellite Orbit:

Table of predicted SNOs for the next 14.0 days since TLE Epoch: 9/12/2020
Index Date (FY3D) Time (FY3D) Lat,Lon (FY3D) SZA (FY3D ) Date (LANDSAT-8) Time (LANDSAT-8) Lat,Lon (LANDSAT-8) SZA (LANDSAT-8 ) Distance(km) Time Diff (sec)
1 09/12/2020 14:16:03 -70.76, 142.86 113.19 09/12/2020 14:17:15 -70.71, 143.07 113.24 8.80 72
2 09/12/2020 15:06:45 70.54, -49.47 66.61 09/12/2020 15:06:43 70.55, -49.53 66.62 2.79 2
3 09/12/2020 15:57:26 -70.44, 118.00 113.48 09/12/2020 15:56:13 -70.45, 117.94 113.47 2.35 73
4 09/15/2020 06:32:31 -71.03,-101.68 111.88 09/15/2020 06:33:42 -70.88,-100.80 112.05 36.13 71
5 09/15/2020 07:23:08 70.55, 66.41 67.65 09/15/2020 07:23:13 70.55, 66.35 67.65 2.45 5
6 09/15/2020 08:13:49 -70.45,-126.11 112.44 09/15/2020 08:12:43 -70.45,-126.17 112.45 2.64 66
7 09/17/2020 22:48:58 -71.25, 13.85 110.62 09/17/2020 22:50:07 -71.15, 15.50 110.75 60.31 69
8 09/17/2020 23:39:31 70.57,-177.70 68.70 09/17/2020 23:39:42 70.60,-177.70 68.73 3.66 11
9 09/18/2020 00:30:12 -70.47, -10.22 111.40 09/18/2020 00:29:12 -70.50, -10.22 111.36 3.52 60
10 09/20/2020 15:05:25 -71.53, 129.28 109.30 09/20/2020 15:06:31 -71.41, 131.80 109.44 90.32 66
11 09/20/2020 15:55:53 70.59, -61.82 69.75 09/20/2020 15:56:11 70.60, -61.83 69.76 0.87 18
12 09/20/2020 16:46:34 -70.49, 105.67 110.34 09/20/2020 16:45:41 -70.50, 105.65 110.33 1.23 53
13 09/23/2020 08:12:16 70.61, 54.07 70.82 09/23/2020 08:12:41 70.58, 54.03 70.79 3.19 25
14 09/23/2020 09:02:57 -70.50,-138.44 109.28 09/23/2020 09:02:11 -70.49,-138.48 109.30 2.55 46
15 09/26/2020 00:28:39 70.63, 169.95 71.88 09/26/2020 00:29:10 70.62, 169.97 71.87 1.30 31
16 09/26/2020 01:19:20 -70.52, -22.56 108.22 09/26/2020 01:18:40 -70.53, -22.54 108.22 0.71 40
